STARLINK-35840

Last updated on Mon Dec 15 2025 00:02:12 GMT+0000 (Coordinated Universal Time)

1 66834U 25280P 25348.25003472 -.01734620 00000+0 -13502-1 0 9995 2 66834 69.9941 194.5150 0003482 268.3471 55.2882 15.74448892 3140
UTC large
Height (km)
Speed (km/s)
/
Latitude / Longitude
Inclination (degrees)
Orbital Period (minutes)
Azimuth
Elevation
Range (km)
Doppler Factor

Next 0 passes for location: London (51.5072 / 0.1276)

Sorry there are no passes over London.